Regional Weather Roundup
Issued by NWS Kansas City/Pleasant Hill, MO

Home | Current Version | Previous Version | Text Only | Print | Product List | Glossary On
Versions: 1 2 3 4 5 6 7 8 9 10 11 12 13 14 15 16 17 18 19 20 21 22 23 24 25 26 27 28 29 30 31 32 33 34 35 36 37 38 39 40 41 42 43 44 45 46 47 48 49 50
000
ASUS43 KEAX 010511
RWREAX

WEATHER ROUNDUP FOR EASTERN KANSAS AND NORTHWEST MISSOURI
NATIONAL WEATHER SERVICE KANSAS CITY/PLEASANT HILL MO
1100 PM CST SAT FEB 28 2015

KSZ040-057-103>105-MOZ028-029-037-043-010600-
...KANSAS CITY METROPOLITAN AREA...

CITY           SKY/WX    TMP DP  RH WIND       PRES   REMARKS
K.C. INTL      FLURRIES  22  19  89 SE5       30.37F WCI  16
K.C. DOWNTOWN  LGT SNOW  24  20  84 E3        30.38F FOG
LEES SUMMIT    LGT SNOW  22  19  89 E3        30.36F FOG
OLATHE - IXD   LGT SNOW  21  19  92 E5        30.36F FOG     WCI  15
OLATHE - OJC   LGT SNOW  22  20  92 CALM      30.36S FOG
LAWRENCE       LGT SNOW  22  19  89 CALM      30.38F FOG

$$

MOZ001>008-011>017-020>025-030>033-038>040-044>046-053-054-010600-
...NORTHERN AND CENTRAL MISSOURI...

CITY           SKY/WX    TMP DP  RH WIND       PRES   REMARKS
ST. JOSEPH     CLOUDY    23  19  85 S7        30.39F WCI  15
MOSBY          LGT SNOW  23  21  93 CALM      30.39F
WARRENSBURG    LGT SNOW  23  21  93 CALM      30.39S
WHITEMAN AFB   LGT SNOW  23  20  91 NE2       30.37F FOG
CLINTON        LGT RAIN  27  25  93 CALM      30.38F
SEDALIA        LGT SNOW  24  20  84 NE3       30.38F FOG
WARSAW         NOT AVBL
CHILLICOTHE      N/A     23  19  85 SE3       30.41F
KIRKSVILLE     CLOUDY    20  18  92 SE6       30.40F WCI  12

$$

MOZ041-047>049-056>058-063>065-088>090-097-010600-
...EASTERN AND SOUTHERN MISSOURI...

CITY           SKY/WX    TMP DP  RH WIND       PRES   REMARKS
ST. LOUIS INTL LGT SNOW  25  21  85 E6        30.43F VSB 3/4 WCI  18
SPIRIT OF STL  LGT SNOW  25  23  92 CALM      30.42F FOG
COLUMBIA       LGT SNOW  23  21  92 SE7       30.38F FOG     WCI  15
JEFFERSON CITY LGT SNOW  25  22  88 E3        30.41F FOG
HANNIBAL       LGT SNOW  23  19  86 CALM      30.41F VSB 1
ROLLA          LGT SNOW  24  21  88 E6        30.35F FOG     WCI  17
LEBANON        LGT SNOW  27  23  86 CALM      30.33F
OSAGE BEACH    CLOUDY    25  21  86 CALM      30.37F
SPRINGFIELD    FLURRIES  26  24  92 SE10      30.32F WCI  16
BRANSON        LGT RAIN  27  25  93 SE8       30.35F WCI  18
NEVADA         CLOUDY    23  23 100 CALM      30.37F
JOPLIN         CLOUDY    27  26  96 MISG      30.35F FOG
WEST PLAINS    FRZ RAIN  26  22  84 CALM      30.38F FOG

$$

IAZ060-094-KSZ022-034>040-054-083-096-NEZ052-066-093-010600-
...KANSAS...SOUTHEAST NEBRASKA AND IOWA...

CITY           SKY/WX    TMP DP  RH WIND       PRES   REMARKS
TOPEKA         CLOUDY    24  18  77 CALM      30.38F
MANHATTAN      CLOUDY    23  18  81 CALM      30.36S
EMPORIA        CLOUDY    21  19  92 SE3       30.35R
CHANUTE        CLOUDY    24  22  91 CALM      30.36S
WICHITA        CLOUDY    23  18  81 SE3       30.34R
OMAHA          FLURRIES  23  17  78 S9        30.36F WCI  13
LINCOLN        CLOUDY    22  15  75 SW7       30.36S WCI  13
FALLS CITY     MOCLDY    16  13  88 CALM      30.37F
LAMONI         CLOUDY    18  16  92 CALM      30.37F
DES MOINES     FLURRIES  21  17  84 SE7       30.38F WCI  12

$$




USA.gov is the U.S. government's official web portal to all federal, state and local government web resources and services.